User: anonymous   Login
Location: Hoyos del Collado
(40.3594°N, 5.2003°W)
Time: 20:02:01
(UTC+00:00)
Language:

CZ-4B R/B - Orbit

View from above orbital plane
View from above orbital plane
View from above satellite
View from above satellite

Ground track
Ground track

The orbit data is extracted from the following two-line orbital elements,

1 33410U 08053C   24171.63681200  .00004539  00000-0  25530-3 0  9997
2 33410  97.8799 205.4918 0108310 238.3046 120.7587 15.08904186854391
Epoch (UTC): 19 June 2024 15:17:00
Eccentricity: 0.0108310
inclination: 97.8799°
perigee height: 464 km
apogee height: 614 km
right ascension of ascending node: 205.4918°
argument of perigee: 238.3046°
revolutions per day: 15.08904186
mean anomaly at epoch: 120.7587°
orbit number at epoch: 85439

The dashed part of the orbit path shows where the satellite is in the earth's shadow,  

DLR